GW5685 Weather Reports


time (UTC)temp
C
wind
direction
speed
KPH
gust
KPH
rain 1hr
cm
rain 24hr
cm
rain mn
cm
humidity
%
barometer
mb
20260505171312 27 228 3.2 4.8 0.00 0.00 0.00 52 1019.0
20260505170808 27 128 3.2 4.8 0.00 0.00 0.00 54 1019.1
20260505170306 26 250 1.6 9.7 0.00 0.00 0.00 55 1019.1
20260505165801 26 245 3.2 4.8 0.00 0.00 0.00 54 1019.4
20260505165257 26 158 1.6 3.2 0.00 0.00 0.00 56 1019.5
20260505164753 26 86 0.0 3.2 0.00 0.00 0.00 57 1019.4
20260505164250 26 135 0.0 3.2 0.00 0.00 0.00 57 1019.5
20260505163748 26 321 3.2 4.8 0.00 0.00 0.00 54 1019.5
20260505163246 26 106 1.6 3.2 0.00 0.00 0.00 55 1019.4
20260505162743 27 41 1.6 4.8 0.00 0.00 0.00 55 1019.6
20260505162240 26 64 0.0 9.7 0.00 0.00 0.00 59 1019.5
20260505161737 27 242 3.2 11.3 0.00 0.00 0.00 53 1019.3
20260505161235 27 232 1.6 9.7 0.00 0.00 0.00 52 1019.4
20260505160732 27 78 3.2 6.4 0.00 0.00 0.00 55 1019.5
20260505160230 27 310 1.6 3.2 0.00 0.00 0.00 57 1019.3
20260505153209 26 2 6.4 9.7 0.00 0.00 0.00 54 1019.2
20260505152706 26 256 1.6 3.2 0.00 0.00 0.00 58 1019.2
20260505152202 26 138 3.2 11.3 0.00 0.00 0.00 60 1019.2
20260505151657 26 170 3.2 12.9 0.00 0.00 0.00 58 1019.3
20260505151155 26 317 4.8 4.8 0.00 0.00 0.00 58 1019.4
20260505150650 26 298 1.6 3.2 0.00 0.00 0.00 58 1019.5
20260505150148 26 169 6.4 9.7 0.00 0.00 0.00 56 1019.4
20260505140616 25 182 3.2 12.9 0.00 0.00 0.00 59 1019.3
20260505140113 25 145 8.0 14.5 0.00 0.00 0.00 61 1019.2
20260505125030 20 10 0.0 0.0 0.00 0.00 0.00 84 1019.0
20260505124526 19 10 0.0 0.0 0.00 0.00 0.00 86 1018.9
20260505124023 18 11 0.0 0.0 0.00 0.00 0.00 87 1018.8
20260505123519 18 11 0.0 0.0 0.00 0.00 0.00 87 1018.8
20260505123015 17 11 0.0 0.0 0.00 0.00 0.00 88 1019.3
20260505122513 17 11 0.0 0.0 0.00 0.00 0.00 89 1019.0
20260505122009 17 11 0.0 0.0 0.00 0.00 0.00 90 1019.1
20260505121506 17 11 0.0 0.0 0.00 0.00 0.00 91 1018.8
20260505121002 16 11 0.0 0.0 0.00 0.00 0.00 91 1018.6
20260505120459 16 11 0.0 0.0 0.00 0.00 0.00 91 1018.7
20260505115958 16 11 0.0 0.0 0.00 0.00 0.00 92 1018.5
20260505115454 16 11 0.0 0.0 0.00 0.00 0.00 92 1018.4
20260505114953 15 11 0.0 0.0 0.00 0.00 0.00 92 1018.7
20260505114449 15 11 0.0 0.0 0.00 0.00 0.00 93 1018.7
20260505113946 15 11 0.0 0.0 0.00 0.00 0.00 93 1018.7
20260505113442 15 11 0.0 0.0 0.00 0.00 0.00 94 1018.8
20260505112938 15 11 0.0 0.0 0.00 0.00 0.00 94 1018.3
20260505112436 15 11 0.0 0.0 0.00 0.00 0.00 94 1018.4
20260505111932 14 11 0.0 0.0 0.00 0.00 0.00 94 1018.4
20260505111432 14 11 0.0 0.0 0.00 0.00 0.00 94 1018.3
20260505110929 14 11 0.0 0.0 0.00 0.00 0.00 94 1018.2
20260505110425 14 11 0.0 0.0 0.00 0.00 0.00 94 1017.9
20260505101856 14 11 0.0 0.0 0.00 0.00 0.00 94 1018.2
20260505101351 14 11 0.0 0.0 0.00 0.00 0.00 94 1018.0
20260505100847 14 11 0.0 0.0 0.00 0.00 0.00 94 1017.8
20260505100344 14 11 0.0 0.0 0.00 0.00 0.00 94 1017.9
20260505095839 14 11 0.0 0.0 0.00 0.00 0.00 94 1017.7
20260505095337 14 11 0.0 0.0 0.00 0.00 0.00 94 1017.6
20260505094833 14 10 0.0 0.0 0.00 0.00 0.00 94 1017.4
20260505094330 14 11 0.0 0.0 0.00 0.00 0.00 93 1017.5
20260505093825 14 11 0.0 0.0 0.00 0.00 0.00 93 1017.7
20260505093324 15 11 0.0 0.0 0.00 0.00 0.00 93 1017.7
20260505092820 15 11 0.0 0.0 0.00 0.00 0.00 94 1017.6
20260505092319 15 11 0.0 0.0 0.00 0.00 0.00 93 1017.6
20260505091815 14 11 0.0 0.0 0.00 0.00 0.00 93 1017.5
20260505091314 14 11 0.0 0.0 0.00 0.00 0.00 93 1017.6
20260505090811 14 11 0.0 0.0 0.00 0.00 0.00 93 1017.4
20260505090309 14 11 0.0 0.0 0.00 0.00 0.00 93 1017.6
20260505085806 15 11 0.0 0.0 0.00 0.00 0.00 93 1017.6
20260505085305 15 11 0.0 0.0 0.00 0.00 0.00 93 1017.5
20260505084801 15 11 0.0 0.0 0.00 0.00 0.00 93 1017.6
20260505084300 15 11 0.0 0.0 0.00 0.00 0.00 93 1017.5
20260505083756 15 11 0.0 0.0 0.00 0.00 0.00 93 1017.5
20260505083253 15 11 0.0 0.0 0.00 0.00 0.00 93 1017.5
20260505082750 15 11 0.0 0.0 0.00 0.00 0.00 93 1017.3
20260505082247 15 11 0.0 0.0 0.00 0.00 0.00 93 1017.2
20260505081743 15 11 0.0 0.0 0.00 0.00 0.00 92 1017.3
20260505081240 15 11 0.0 0.0 0.00 0.00 0.00 92 1017.3
20260505080737 15 11 0.0 0.0 0.00 0.00 0.00 93 1017.6
20260505080232 15 11 0.0 0.0 0.00 0.00 0.00 93 1017.3
20260505075728 15 11 0.0 0.0 0.00 0.00 0.00 92 1017.5
20260505075226 15 11 0.0 0.0 0.00 0.00 0.00 92 1017.4
20260505074723 15 11 0.0 0.0 0.00 0.00 0.00 92 1017.7
20260505074220 15 11 0.0 0.0 0.00 0.00 0.00 92 1017.4
20260505073718 15 11 0.0 0.0 0.00 0.00 0.00 93 1017.7
20260505073215 15 11 0.0 0.0 0.00 0.00 0.00 92 1017.6
20260505072711 15 11 0.0 0.0 0.00 0.00 0.00 92 1017.5
20260505072208 15 11 0.0 0.0 0.00 0.00 0.00 92 1017.6
20260505071703 15 11 0.0 0.0 0.00 0.00 0.00 92 1017.2
20260505071201 15 11 0.0 0.0 0.00 0.00 0.00 91 1017.3
20260505070658 15 11 0.0 0.0 0.00 0.00 0.00 91 1017.4
20260505070154 16 11 0.0 0.0 0.00 0.00 0.00 91 1017.4
20260505065650 16 11 0.0 0.0 0.00 0.00 0.00 91 1017.7
20260505065147 16 11 0.0 0.0 0.00 0.00 0.00 91 1017.4
20260505064644 16 11 0.0 0.0 0.00 0.00 0.00 90 1017.7
20260505064142 16 11 0.0 0.0 0.00 0.00 0.00 90 1017.7
20260505063639 16 11 0.0 0.0 0.00 0.00 0.00 91 1018.1
20260505063136 16 11 0.0 0.0 0.00 0.00 0.00 91 1017.8
20260505062632 15 11 0.0 0.0 0.00 0.00 0.00 91 1018.0
20260505062129 15 11 0.0 0.0 0.00 0.00 0.00 91 1018.2
20260505061626 15 11 0.0 0.0 0.00 0.00 0.00 90 1018.0
20260505061125 16 11 0.0 0.0 0.00 0.00 0.00 90 1017.8
20260505060622 16 11 0.0 0.0 0.00 0.00 0.00 89 1017.8
20260505060118 16 11 0.0 0.0 0.00 0.00 0.00 88 1018.0
20260505055613 16 11 0.0 0.0 0.00 0.00 0.00 87 1017.9
20260505055110 16 11 0.0 0.0 0.00 0.00 0.00 86 1018.2
20260505054608 16 11 0.0 0.0 0.00 0.00 0.00 86 1018.0
20260505054106 16 11 0.0 0.0 0.00 0.00 0.00 86 1018.3
20260505053603 16 11 0.0 0.0 0.00 0.00 0.00 86 1018.3
20260505053059 16 11 0.0 0.0 0.00 0.00 0.00 85 1018.4
20260505052556 16 11 0.0 0.0 0.00 0.00 0.00 85 1018.5
20260505052054 16 11 0.0 0.0 0.00 0.00 0.00 85 1018.7
20260505051550 16 11 0.0 0.0 0.00 0.00 0.00 84 1018.7
20260505051048 16 11 0.0 0.0 0.00 0.00 0.00 84 1018.7
20260505050546 16 11 0.0 0.0 0.00 0.00 0.00 84 1018.8
20260505041514 17 11 0.0 0.0 0.00 0.00 0.00 81 1018.8
20260505041012 17 11 0.0 0.0 0.00 0.00 0.00 82 1018.9
20260505040509 17 11 0.0 0.0 0.00 0.00 0.00 82 1018.9
20260505040006 17 11 0.0 0.0 0.00 0.00 0.00 82 1018.8
20260505035501 17 11 0.0 0.0 0.00 0.00 0.00 82 1019.0
20260505034959 17 11 0.0 0.0 0.00 0.00 0.00 81 1018.8
20260505034455 17 11 0.0 0.0 0.00 0.00 0.00 80 1018.8
20260505033952 17 11 0.0 0.0 0.00 0.00 0.00 81 1019.0
20260505033449 17 11 0.0 0.0 0.00 0.00 0.00 80 1019.1
20260505032947 17 11 0.0 0.0 0.00 0.00 0.00 81 1019.2
20260505032444 17 11 0.0 0.0 0.00 0.00 0.00 80 1019.0
20260505031940 17 11 0.0 0.0 0.00 0.00 0.00 80 1019.3
20260505031438 17 11 0.0 0.0 0.00 0.00 0.00 79 1019.4
20260505030934 17 11 0.0 0.0 0.00 0.00 0.00 79 1019.5
20260505030430 17 11 0.0 0.0 0.00 0.00 0.00 79 1019.3
20260505025926 17 11 0.0 0.0 0.00 0.00 0.00 81 1019.3
20260505025423 17 11 0.0 0.0 0.00 0.00 0.00 79 1019.4
20260505024922 17 11 0.0 0.0 0.00 0.00 0.00 79 1019.3
20260505024419 17 11 0.0 0.0 0.00 0.00 0.00 78 1019.1
20260505023916 17 11 0.0 0.0 0.00 0.00 0.00 80 1019.3
20260505023413 17 11 0.0 0.0 0.00 0.00 0.00 79 1019.2
20260505022910 18 11 0.0 0.0 0.00 0.00 0.00 79 1019.2
20260505022408 18 11 0.0 0.0 0.00 0.00 0.00 79 1019.1
20260505021905 18 11 0.0 0.0 0.00 0.00 0.00 77 1019.5
20260505021401 18 11 0.0 0.0 0.00 0.00 0.00 79 1018.9
20260505020857 18 11 0.0 0.0 0.00 0.00 0.00 77 1019.3
20260505020353 18 11 0.0 0.0 0.00 0.00 0.00 77 1019.2
20260505015850 18 11 0.0 0.0 0.00 0.00 0.00 76 1019.2
20260505015347 18 11 0.0 0.0 0.00 0.00 0.00 77 1019.2
20260505014844 18 11 0.0 0.0 0.00 0.00 0.00 78 1019.2
20260505014341 18 11 0.0 0.0 0.00 0.00 0.00 76 1018.8
20260505013837 18 11 0.0 0.0 0.00 0.00 0.00 76 1019.1
20260505013334 18 11 0.0 0.0 0.00 0.00 0.00 76 1018.8
20260505012833 18 12 0.0 0.0 0.00 0.00 0.00 75 1018.9
20260505012331 18 12 0.0 0.0 0.00 0.00 0.00 74 1018.8
20260505011826 19 12 0.0 0.0 0.00 0.00 0.00 74 1018.6
20260505011323 19 12 0.0 0.0 0.00 0.00 0.00 74 1018.7
20260505010819 19 12 0.0 0.0 0.00 0.00 0.00 74 1018.6
20260505010315 19 13 0.0 0.0 0.00 0.00 0.00 71 1018.5
20260505005812 19 13 0.0 0.0 0.00 0.00 0.00 71 1018.4
20260505005309 20 13 0.0 0.0 0.00 0.00 0.00 70 1018.6
20260505004806 20 12 0.0 0.0 0.00 0.00 0.00 71 1018.6
20260505004302 20 13 0.0 0.0 0.00 0.00 0.00 70 1018.9
20260505003800 20 13 0.0 0.0 0.00 0.00 0.00 69 1018.4
20260505003257 20 13 0.0 0.0 0.00 0.00 0.00 67 1018.6
20260505002753 20 12 0.0 0.0 0.00 0.00 0.00 68 1018.4
20260505002251 21 13 0.0 1.6 0.00 0.00 0.00 66 1018.4
20260505001748 21 108 0.0 1.6 0.00 0.00 0.00 64 1018.2
20260505001245 21 112 0.0 0.0 0.00 0.00 0.00 63 1018.2
20260505000742 21 111 0.0 0.0 0.00 0.00 0.00 65 1018.1
20260505000240 22 111 0.0 0.0 0.00 0.00 0.00 63 1018.2
20260504235736 22 92 0.0 1.6 0.00 0.00 0.00 60 1018.4
20260504235233 23 92 1.6 4.8 0.00 0.00 0.00 57 1018.1
20260504234730 23 229 0.0 1.6 0.00 0.00 0.00 58 1017.7
20260504234227 23 86 1.6 1.6 0.00 0.00 0.00 58 1018.0
20260504233724 23 90 1.6 4.8 0.00 0.00 0.00 57 1017.9
20260504233219 24 168 1.6 3.2 0.00 0.00 0.00 54 1017.8
20260504232717 24 89 1.6 6.4 0.00 0.00 0.00 54 1017.9
20260504232214 24 241 0.0 3.2 0.00 0.00 0.00 55 1018.0
20260504231710 24 108 1.6 3.2 0.00 0.00 0.00 59 1017.7
20260504231207 24 189 0.0 4.8 0.00 0.00 0.00 53 1017.7
20260504230703 25 85 3.2 6.4 0.00 0.00 0.00 54 1017.7
20260504230202 24 166 4.8 4.8 0.00 0.00 0.00 53 1017.8
20260504225700 25 113 1.6 9.7 0.00 0.00 0.00 54 1017.6
20260504225155 25 296 1.6 9.7 0.00 0.00 0.00 55 1017.7
20260504224653 25 56 1.6 9.7 0.00 0.00 0.00 53 1018.0
20260504224149 25 214 3.2 4.8 0.00 0.00 0.00 53 1017.8
20260504223647 25 296 3.2 4.8 0.00 0.00 0.00 54 1017.6
20260504223142 25 238 3.2 6.4 0.00 0.00 0.00 52 1018.0
20260504222639 25 330 3.2 9.7 0.00 0.00 0.00 52 1017.8
20260504222136 25 221 0.0 3.2 0.00 0.00 0.00 53 1017.7
20260504221634 25 95 3.2 4.8 0.00 0.00 0.00 52 1017.7
20260504221131 26 327 6.4 9.7 0.00 0.00 0.00 54 1017.7
20260504220627 26 146 1.6 4.8 0.00 0.00 0.00 52 1017.7
20260504220125 25 130 1.6 3.2 0.00 0.00 0.00 51 1017.8
20260504215620 25 327 3.2 9.7 0.00 0.00 0.00 51 1018.0
20260504215118 25 304 1.6 9.7 0.00 0.00 0.00 54 1017.9
20260504214614 25 303 3.2 3.2 0.00 0.00 0.00 54 1017.9
20260504214110 25 196 1.6 12.9 0.00 0.00 0.00 52 1017.8
20260504213607 26 217 0.0 4.8 0.00 0.00 0.00 54 1018.0
20260504213104 26 259 1.6 6.4 0.00 0.00 0.00 54 1017.7
20260504212600 26 179 3.2 6.4 0.00 0.00 0.00 53 1017.8
20260504212057 25 81 0.0 6.4 0.00 0.00 0.00 52 1017.8
20260504211554 25 147 4.8 14.5 0.00 0.00 0.00 52 1017.9
20260504211051 25 189 1.6 4.8 0.00 0.00 0.00 52 1017.7
20260504210548 25 131 3.2 6.4 0.00 0.00 0.00 52 1017.8
20260504210045 26 127 3.2 9.7 0.00 0.00 0.00 51 1017.7
20260504205543 26 234 1.6 4.8 0.00 0.00 0.00 52 1018.0
20260504205040 25 256 1.6 4.8 0.00 0.00 0.00 56 1017.9
20260504204538 25 302 1.6 3.2 0.00 0.00 0.00 55 1018.0
20260504204037 26 207 6.4 11.3 0.00 0.00 0.00 54 1017.7
20260504203534 26 342 1.6 6.4 0.00 0.00 0.00 55 1018.0
20260504203032 26 216 4.8 6.4 0.00 0.00 0.00 52 1017.8
20260504202527 26 326 6.4 9.7 0.00 0.00 0.00 51 1018.0
20260504202024 26 163 9.7 11.3 0.00 0.00 0.00 50 1018.2
20260504201521 26 225 3.2 4.8 0.00 0.00 0.00 52 1018.1
20260504201019 26 94 3.2 11.3 0.00 0.00 0.00 54 1018.2
20260504200515 26 343 6.4 9.7 0.00 0.00 0.00 51 1018.4
20260504200012 26 340 1.6 11.3 0.00 0.00 0.00 55 1018.1
20260504195508 26 328 6.4 11.3 0.00 0.00 0.00 51 1018.2
20260504195005 26 160 6.4 12.9 0.00 0.00 0.00 52 1018.3
20260504194501 26 28 3.2 6.4 0.00 0.00 0.00 52 1018.3
20260504193956 26 94 3.2 12.9 0.00 0.00 0.00 53 1018.3
20260504193454 25 120 6.4 11.3 0.00 0.00 0.00 56 1018.2
20260504192953 26 351 3.2 11.3 0.00 0.00 0.00 54 1018.4
20260504192449 26 143 3.2 9.7 0.00 0.00 0.00 54 1018.6
20260504191949 26 175 0.0 6.4 0.00 0.00 0.00 52 1018.5
20260504191446 25 68 6.4 12.9 0.00 0.00 0.00 58 1018.5
20260504190941 26 156 4.8 6.4 0.00 0.00 0.00 54 1018.5
20260504190437 25 170 3.2 6.4 0.00 0.00 0.00 55 1018.7
20260504185934 25 354 4.8 4.8 0.00 0.00 0.00 53 1019.0
20260504185431 26 17 4.8 11.3 0.00 0.00 0.00 52 1018.6
20260504184927 26 348 8.0 12.9 0.00 0.00 0.00 50 1019.0
20260504184423 26 331 1.6 4.8 0.00 0.00 0.00 51 1019.0
20260504183919 26 274 1.6 4.8 0.00 0.00 0.00 52 1019.2
20260504183417 25 96 4.8 12.9 0.00 0.00 0.00 53 1019.5
20260504182914 26 196 3.2 17.7 0.00 0.00 0.00 55 1019.1
20260504182411 25 216 4.8 6.4 0.00 0.00 0.00 51 1019.3
20260504181908 26 156 6.4 11.3 0.00 0.00 0.00 51 1019.3
20260504181405 25 73 3.2 9.7 0.00 0.00 0.00 52 1019.3
20260504180904 26 275 1.6 3.2 0.00 0.00 0.00 55 1019.4
20260504180402 26 96 3.2 6.4 0.00 0.00 0.00 52 1019.5
20260504175900 25 167 6.4 6.4 0.00 0.00 0.00 51 1019.4
20260504175356 25 310 4.8 9.7 0.00 0.00 0.00 52 1019.5
20260504174855 25 87 1.6 6.4 0.00 0.00 0.00 51 1019.4
20260504174352 26 181 6.4 6.4 0.00 0.00 0.00 51 1019.4
20260504173849 26 232 1.6 6.4 0.00 0.00 0.00 50 1019.3
20260504173345 26 314 11.3 20.9 0.00 0.00 0.00 49 1019.6
20260504172843 26 239 0.0 6.4 0.00 0.00 0.00 51 1019.6
20260504172339 26 165 6.4 9.7 0.00 0.00 0.00 50 1019.5
20260504171835 26 207 1.6 9.7 0.00 0.00 0.00 52 1019.6